Regional Weather Roundup
Issued by NWS

Home | Current Version | Previous Version | Text Only | Print | Product List | Glossary On
Versions: 1 2 3 4 5 6 7 8 9 10 11 12 13 14 15 16 17 18 19 20 21 22 23 24 25 26 27 28 29 30 31 32 33 34 35 36 37 38 39 40 41 42 43 44 45 46 47 48 49 50
000
ASUS43 KMKX 210100
RWRWI

WISCONSIN REGIONAL WEATHER ROUNDUP
NATIONAL WEATHER SERVICE MILWAUKEE/SULLIVAN WI
800 PM CDT MON OCT 20 2014

NOTE: "FAIR" INDICATES FEW OR NO CLOUDS BELOW 12,000 FEET WITH NO
SIGNIFICANT WEATHER AND/OR OBSTRUCTIONS TO VISIBILITY.

WIZ001-002-006>008-014>016-023>028-210200-
NORTHWEST WISCONSIN

CITY           SKY/WX    TMP DP  RH WIND       PRES   REMARKS
SUPERIOR ARPT  CLOUDY    48  38  68 N6        30.08R
ASHLAND        CLOUDY    48  40  73 N6        30.08R
HAYWARD        CLOUDY    49  40  71 N5        30.07R
SIREN          CLOUDY    49  38  64 N5        30.07R
CUMBERLAND     CLOUDY    48  37  66 N5        30.06R
RICE LAKE      CLOUDY    50  39  66 NW5       30.07R
CHETEK         CLOUDY    49  40  71 CALM      30.05R
LADYSMITH      CLOUDY    49  42  74 NW3       30.06R
EAU CLAIRE     NOT AVBL
MENOMONIE      PTCLDY    51  39  64 N5        30.04S
NEW RICHMOND   CLEAR     47  39  72 NE5       30.05R
OSCEOLA        CLEAR     48  40  73 N5        30.08R
$$

WIZ003>005-009-010-017-018-210200-
NORTH CENTRAL WISCONSIN

CITY           SKY/WX    TMP DP  RH WIND       PRES   REMARKS
MANITOWISH WTR CLOUDY    43  43  99 N5        30.03R
ARBOR VITAE    DRIZZLE   45  42  91 N8        30.03R
WOODRUFF       DRIZZLE   45  42  91 N8        30.03R
RHINELANDER    CLOUDY    43  41  93 CALM      30.03S
EAGLE RIVER    CLOUDY    42  41  95 N7        30.02R
LAND O LAKES   DRIZZLE   43  40  91 N7        30.03R
PHILLIPS       CLOUDY    46  39  76 N7        30.03R
TOMAHAWK       CLOUDY    45  40  81 CALM      30.03R
MEDFORD        CLOUDY    47  39  76 N3        30.03R
MERRILL        CLOUDY    47  40  76 N6        30.02R
$$

WIZ029-030-035-036-043>047-210200-
CENTRAL WISCONSIN

CITY           SKY/WX    TMP DP  RH WIND       PRES   REMARKS
WAUSAU         CLOUDY    47  40  76 CALM      30.02R
MOSINEE        CLOUDY    46  41  81 N7        30.04R
MARSHFIELD     CLOUDY    50  41  71 N3        30.03R
STEVENS POINT  CLOUDY    47  39  71 NW5       30.03R
WAUPACA        CLOUDY    53  42  66 NW7       30.01R
WAUTOMA        NOT AVBL
WISC RAPIDS    CLOUDY    51  40  65 N6        30.04R
CAMP DOUGLAS   NOT AVBL
$$

WIZ011>013-019>022-031-037>040-048>050-210200-
NORTHEAST WISCONSIN

CITY           SKY/WX    TMP DP  RH WIND       PRES   REMARKS
ANTIGO         CLOUDY    44  40  87 N9        30.02R
SHAWANO        CLOUDY    51  42  72 N8        30.01R
OCONTO         CLOUDY    48  43  84 N3        29.99R
STURGEON BAY   CLOUDY    48  39  71 N14G20    29.99R
GREEN BAY      CLOUDY    48  44  86 N9        30.00R
MANITOWOC      NOT AVBL
APPLETON       CLOUDY    48  43  81 NW7       30.00R
CLINTONVILLE   CLOUDY    50  41  71 N6        30.00R
OSHKOSH        CLOUDY    51  44  77 NW7       30.00R
$$

WIZ032>034-041-042-053>061-210200-
SOUTHWEST WISCONSIN

CITY           SKY/WX    TMP DP  RH WIND       PRES   REMARKS
LA CROSSE      CLEAR     51  40  65 N3        30.03R
SPARTA         MOCLDY    50  37  61 N5        30.04R
VIROQUA        MOCLDY    48  40  71 N5        30.02R
BOSCOBEL       CLEAR     53  41  63 E3        30.01R
PRAIRIE DU CHI CLEAR     54  41  62 CALM      30.00R
PLATTEVILLE    MOCLDY    50  41  69 N6        30.00R
$$

WIZ056-057-062-063-064-067-068-210200-
SOUTH CENTRAL WISCONSIN

CITY           SKY/WX    TMP DP  RH WIND       PRES   REMARKS
REEDSBURG      CLOUDY    53  40  63 N9        30.01R
BARABOO/DELLS  CLOUDY    53  38  57 N6        30.02R
LONE ROCK      NOT AVBL
MINERAL POINT  CLEAR     52  37  58 N7        30.00R
MADISON        CLOUDY    52  42  69 N3        30.01R
MIDDLETON      CLOUDY    53  39  59 N7        30.00R
WATERTOWN      CLOUDY    51  42  72 N6        29.99R
MONROE         MOCLDY    50  41  71 NE3       29.99R
JANESVILLE     MOCLDY    54  39  58 NE8       29.98R
$$

WIZ051-052-058>065-066-070>072-210200-
SOUTHEAST WISCONSIN

CITY           SKY/WX    TMP DP  RH WIND       PRES   REMARKS
MILWAUKEE      MOCLDY    53  42  66 NW8       29.98R
WAUKESHA       CLOUDY    48  41  76 NW12      30.00R
MILWAUKEE/TIMM CLOUDY    52  41  66 NW8       29.99R
RACINE         CLOUDY    52  42  69 NW5       30.00R
BURLINGTON     CLOUDY    51  40  68 NW9       29.99R
KENOSHA        CLOUDY    52  42  69 NW7       29.98R
FOND DU LAC    CLOUDY    50  43  77 NW6       30.00R
SHEBOYGAN      CLOUDY    49  43  80 NW7       29.99R
WEST BEND      CLOUDY    50  41  71 NW5       29.99R
JUNEAU         CLOUDY    49  42  76 NW3       30.01R
$$

LSZ147-162-210200-
LAKE SUPERIOR

STATION/POSITION TIME  TEMP    WIND        PRES    WAVE
                       AIR SEA DIR/SP/G            HT/PER
                 (UTC) (F)     (DEG/KT/KT) (MB)    (FT/S)
W MID LAKE BUOY  2350   46 46   40/ 12/ 14 1018.0R   1/ 3
DEVILS ISLAND    0000   49      30/ 14/ 15 1018.4R
PORT WING        0000   50     360/  7/ 10 1018.3
SAXON HARBOR     0000   50      20/  7/ 12 1017.6R
$$

LMZ867-665-643>646-210200-
LAKE MICHIGAN

STATION/POSITION TIME  TEMP    WIND        PRES    WAVE
                       AIR SEA DIR/SP/G            HT/PER
                 (UTC) (F)     (DEG/KT/KT) (MB)    (FT/S)
CHAMBERS ISLAND  0000   49     340/ 16/ 18 1014.9R
N MID LAKE BUOY  2350   47 52  340/ 23/ 27 1013.4R   4/ 5
NORTHPORT PIER   0000   47     350/ 20/ 26 1014.6R
SISTER BAY       2328          350/ 18/ 23   N/A
KEWAUNEE LAKESHO 0000   50     320/  3/  7 1013.8R
SHEBOYGAN LAKESH 0000   50 51  330/  8/ 10 1015.4R
PORT WASHINGTON  0000   53     330/  3/  9 1015.6R
ATWATER BUOY     0000   53     300/ 10/ 12 1015.9R
MILWAUKEE LAKESH 0000   54     310/  6/  9   N/A
S MID LAKE BUOY  2350   53 55  350/ 16/ 17 1014.1R   3/ 5
KENOSHA   LAKESH 0000   53     310/  7/ 10 1014.6R
$$

TC  - TEMPERATURE IN CELSIUS
VSB - VISIBILITY IN STATUTE MILES
WCI - WIND CHILL INDEX
HX  - HEAT INDEX




USA.gov is the U.S. government's official web portal to all federal, state and local government web resources and services.